K0TNT-10 Weather Reports


time (UTC)temp
C
wind
direction
speed
KPH
gust
KPH
rain 1hr
cm
rain 24hr
cm
rain mn
cm
humidity
%
barometer
mb
20260507140035 11 75 1.6 19.3 0.00 0.00 0.00 69 1016.4
20260507134512 11 117 0.0 14.5 0.00 0.00 0.00 72 1016.5
20260507133046 10 89 1.6 12.9 0.00 0.00 0.00 74 1016.3
20260507131510 10 100 0.0 3.2 0.00 0.00 0.00 76 1016.5
20260507130050 8 110 0.0 3.2 0.00 0.00 0.00 78 1016.5
20260507124509 8 112 0.0 1.6 0.00 0.00 0.00 81 1016.3
20260507123048 7 110 0.0 0.0 0.00 0.00 0.00 82 1016.4
20260507121517 7 102 0.0 0.0 0.00 0.00 0.00 84 1016.4
20260507120041 7 103 0.0 0.0 0.00 0.00 0.00 85 1016.5
20260507114524 6 105 0.0 0.0 0.00 0.00 0.00 86 1016.6
20260507113053 6 113 0.0 0.0 0.00 0.00 0.00 86 1016.7
20260507111523 6 105 0.0 0.0 0.00 0.00 0.00 86 1016.6
20260507104529 6 103 0.0 0.0 0.00 0.00 0.00 84 1016.7
20260507103115 7 110 0.0 0.0 0.00 0.00 0.00 84 1016.7
20260507101549 7 106 0.0 0.0 0.00 0.00 0.00 83 1016.8
20260507100032 7 112 0.0 0.0 0.00 0.00 0.00 82 1016.8
20260507094602 7 92 0.0 0.0 0.00 0.00 0.00 80 1016.8
20260507094500 7 91 0.0 0.0 0.00 0.00 0.00 80 1016.8
20260507093029 7 99 0.0 0.0 0.00 0.00 0.00 80 1016.8
20260507091559 8 110 0.0 0.0 0.00 0.00 0.00 79 1016.8
20260507091509 8 115 0.0 0.0 0.00 0.00 0.00 79 1016.9
20260507090055 8 107 0.0 0.0 0.00 0.00 0.00 79 1017.0
20260507084540 8 109 0.0 0.0 0.00 0.00 0.00 78 1017.2
20260507083015 8 109 0.0 0.0 0.00 0.00 0.00 78 1017.3
20260507081539 7 113 0.0 0.0 0.00 0.00 0.00 78 1017.3
20260507080023 8 109 0.0 0.0 0.00 0.00 0.00 77 1017.4
20260507074547 8 112 0.0 0.0 0.00 0.00 0.00 76 1017.5
20260507073032 8 105 0.0 0.0 0.00 0.00 0.00 76 1017.6
20260507071505 8 110 0.0 0.0 0.00 0.00 0.00 74 1017.6
20260507070046 8 108 0.0 0.0 0.00 0.00 0.00 74 1017.7
20260507064505 8 110 0.0 0.0 0.00 0.00 0.00 73 1017.9
20260507063033 8 113 0.0 0.0 0.00 0.00 0.00 72 1018.1
20260507061502 9 109 0.0 0.0 0.00 0.00 0.00 70 1018.2
20260507060033 10 102 0.0 0.0 0.00 0.00 0.00 68 1018.2
20260507054614 10 115 0.0 0.0 0.00 0.00 0.00 66 1018.4
20260507053029 10 110 0.0 0.0 0.00 0.00 0.00 64 1018.5
20260507051501 11 102 0.0 0.0 0.00 0.00 0.00 63 1018.4
20260507050059 11 104 0.0 0.0 0.00 0.00 0.00 62 1018.4
20260507044523 11 102 0.0 0.0 0.00 0.00 0.00 62 1018.4
20260507043100 11 103 0.0 0.0 0.00 0.00 0.00 61 1018.4
20260507041529 11 100 0.0 0.0 0.00 0.00 0.00 62 1018.4
20260507040059 11 113 0.0 0.0 0.00 0.00 0.00 62 1018.4
20260507034535 11 110 0.0 0.0 0.00 0.00 0.00 62 1018.4
20260507033023 11 109 0.0 0.0 0.00 0.00 0.00 61 1018.4
20260507031550 11 110 0.0 0.0 0.00 0.00 0.00 60 1018.4
20260507030033 11 116 0.0 0.0 0.00 0.00 0.00 58 1018.5
20260507024516 11 103 0.0 0.0 0.00 0.00 0.00 55 1018.4
20260507023038 11 103 0.0 0.0 0.00 0.00 0.00 54 1018.3
20260507021518 11 103 0.0 0.0 0.00 0.00 0.00 52 1018.0
20260507020108 11 89 0.0 0.0 0.00 0.00 0.00 54 1017.8
20260507014529 11 89 0.0 0.0 0.00 0.00 0.00 52 1017.7
20260507013053 12 89 0.0 0.0 0.00 0.00 0.00 45 1017.5
20260507011559 13 89 0.0 0.0 0.00 0.00 0.00 42 1017.5
20260507010040 14 89 0.0 0.0 0.00 0.00 0.00 37 1017.4
20260507004552 16 89 0.0 0.0 0.00 0.00 0.00 33 1017.5
20260507004504 16 89 0.0 0.0 0.00 0.00 0.00 32 1017.5
20260507003034 17 72 0.0 0.0 0.00 0.00 0.00 30 1017.5
20260507001555 17 98 0.0 0.0 0.00 0.00 0.00 30 1017.5
20260507000025 17 105 0.0 0.0 0.00 0.00 0.00 31 1017.6
20260506234604 18 95 0.0 0.0 0.00 0.00 0.00 31 1017.6
20260506233022 17 112 0.0 0.0 0.00 0.00 0.00 32 1017.6
20260506231558 16 83 0.0 0.0 0.00 0.00 0.00 32 1017.6
20260506224538 16 101 0.0 0.0 0.00 0.00 0.00 32 1017.8
20260506223038 17 108 0.0 0.0 0.00 0.00 0.00 30 1017.7
20260506221516 17 108 0.0 0.0 0.00 0.00 0.00 29 1017.8
20260506220048 18 92 0.0 0.0 0.00 0.00 0.00 34 1018.0
20260506214514 17 103 0.0 0.0 0.00 0.00 0.00 35 1018.0
20260506213052 16 89 0.0 11.3 0.00 0.00 0.00 31 1018.3
20260506211542 16 114 0.0 0.0 0.00 0.00 0.00 33 1018.5
20260506210031 16 90 0.0 0.0 0.00 0.00 0.00 31 1018.8
20260506204546 16 88 0.0 0.0 0.00 0.00 0.00 34 1019.0
20260506203036 16 104 0.0 0.0 0.00 0.00 0.00 35 1019.3
20260506201516 17 124 0.0 0.0 0.00 0.00 0.00 33 1019.6
20260506200052 16 96 0.0 0.0 0.00 0.00 0.00 36 1019.7
20260506194525 16 115 0.0 0.0 0.00 0.00 0.00 32 1019.9
20260506193059 17 122 0.0 0.0 0.00 0.00 0.00 31 1019.8
20260506191534 16 91 0.0 1.6 0.00 0.00 0.00 33 1019.8
20260506190006 16 84 0.0 0.0 0.00 0.00 0.00 33 1019.8
20260506184603 16 104 0.0 0.0 0.00 0.00 0.00 31 1019.8
20260506183042 15 58 0.0 0.0 0.00 0.00 0.00 34 1020.0
20260506181523 15 113 0.0 1.6 0.00 0.00 0.00 35 1020.2
20260506180042 13 143 0.0 0.0 0.00 0.00 0.00 40 1020.2
20260506174533 15 131 0.0 4.8 0.00 0.00 0.00 42 1020.4
20260506173119 14 124 0.0 0.0 0.00 0.00 0.00 40 1020.6
20260506171533 13 91 0.0 0.0 0.00 0.00 0.00 39 1020.8
20260506170007 14 310 0.0 0.0 0.00 0.00 0.00 43 1020.9
20260506164526 12 117 0.0 0.0 0.00 0.00 0.00 45 1020.9
20260506163058 12 110 0.0 0.0 0.00 0.00 0.00 44 1020.8
20260506161539 11 85 0.0 0.0 0.00 0.00 0.00 49 1020.8
20260506160004 11 113 0.0 0.0 0.00 0.05 0.00 49 1020.8
20260506154533 11 103 0.0 0.0 0.00 0.05 0.00 52 1020.7
20260506153020 11 81 0.0 0.0 0.00 0.05 0.00 50 1020.8
20260506151554 11 103 0.0 0.0 0.00 0.05 0.00 50 1020.7
20260506150029 10 155 0.0 0.0 0.00 0.23 0.00 61 1020.5
20260506144559 10 93 0.0 1.6 0.00 0.23 0.00 62 1020.4
20260506143025 10 113 0.0 0.0 0.00 0.23 0.00 66 1020.4
20260506141541 9 108 0.0 0.0 0.00 0.23 0.00 68 1020.4